This is the latest recevied weather packets stored in our database for station/object F4FEB-14. If no packets are shown the sender has not sent any weather packets the latest 10 day(s).
| Time | Temp. | Humidity | Pressure | Rain* | Wind** | Luminosity | Snow |
|---|---|---|---|---|---|---|---|
| 1777818695 | 16.11° C | 75% | 1017.8 hPa | 0 mm | - | - | - |
| 1777818093 | 16.67° C | 70% | 1017.9 hPa | 0 mm | - | - | - |
| 1777817792 | 17.22° C | 71% | 1017.9 hPa | 0 mm | - | - | - |
| 1777817489 | 17.78° C | 70% | 1017.8 hPa | 0 mm | - | - | - |
| 1777817188 | 18.33° C | 74% | 1017.7 hPa | 0 mm | - | - | - |
| 1777816585 | 18.33° C | 70% | 1017.5 hPa | 0 mm | - | - | - |
| 1777816284 | 18.89° C | 66% | 1017.6 hPa | 0 mm | - | - | - |
| 1777815983 | 18.89° C | 63% | 1017.6 hPa | 0 mm | - | - | - |
| 1777815381 | 18.89° C | 61% | 1017.5 hPa | 0 mm | - | - | - |
| 1777814778 | 18.89° C | 61% | 1017.4 hPa | 0 mm | - | - | - |
| 1777814475 | 18.89° C | 62% | 1017.5 hPa | 0 mm | - | - | - |
| 1777814174 | 18.89° C | 60% | 1017.5 hPa | 0 mm | - | - | - |
| 1777813873 | 18.89° C | 60% | 1017.6 hPa | 0 mm | - | - | - |
| 1777813269 | 18.89° C | 58% | 1017.4 hPa | 0 mm | - | - | - |
| 1777812967 | 18.33° C | 58% | 1017.7 hPa | 0 mm | - | - | - |
| 1777812063 | 17.78° C | 54% | 1018.1 hPa | 0 mm | - | - | - |
| 1777811762 | 17.78° C | 55% | 1017.9 hPa | 0 mm | - | - | - |
| 1777811160 | 17.78° C | 60% | 1017.9 hPa | 0 mm | - | - | - |
| 1777810858 | 17.78° C | 64% | 1017.9 hPa | 0 mm | - | - | - |
| 1777810557 | 17.78° C | 66% | 1017.9 hPa | 0 mm | - | - | - |
| 1777810256 | 17.78° C | 67% | 1017.7 hPa | 0 mm | - | - | - |
| 1777809654 | 17.78° C | 65% | 1017.7 hPa | 0 mm | - | - | - |
| 1777809352 | 17.78° C | 63% | 1017.8 hPa | 0 mm | - | - | - |
| 1777809051 | 18.33° C | 63% | 1017.8 hPa | 0 mm | - | - | - |
| 1777808751 | 18.89° C | 61% | 1017.8 hPa | 0 mm | - | - | - |
* Rain latest hour (hover to see other rain measurements)
** Current wind speed in m/s (hover to see current wind gust speed)